Back to catalog

CZ-4C DEB

AliveLEO
NORAD 43421·DEBRIS·🇨🇳 China

Launched Dec 10, 2014 from Jiuquan Satellite Launch Center

Loading…

Next Passes (next 24 hours)

TLE

StaleSource: Space-Track

Epoch: Aug 29, 2026, 23:26 UTC

1 43421U 14080K   26241.97647771  .00000079  00000-0  18536-3 0  9992
2 43421  63.3849 140.1666 0384120  11.5494 349.4040 13.44801834499108

Track CZ-4C DEB in real time with AllMySat

Download on the App Store